Regional Weather Roundup
Issued by NWS Wakefield, VA

Home | Current Version | Previous Version | Text Only | Print | Product List | Glossary Off
Versions: 1 2 3 4 5 6 7 8 9 10 11 12 13 14 15 16 17 18 19 20 21 22 23 24 25 26 27 28

000
ASUS41 KAKQ 230015
RWRAKQ

REGIONAL WEATHER ROUNDUP
NATIONAL WEATHER SERVICE WAKEFIELD VA
800 PM EDT MON AUG 22 2016

Note: "fair" indicates few or no clouds below 12,000 feet with no
significant weather and/or obstructions to visibility. * = Denotes
station may not report precipitation (e.g., rain,snow,etc.),
thunder or fog.

VAZ042-051-052>054-056-230100-
NORTHERN VIRGINIA

CITY           SKY/WX    TMP DP  RH WIND       PRES   REMARKS
WASH NATIONAL  PTCLDY    80  56  43 NW10      30.14R
DULLES         PTCLDY    78  55  44 N6        30.14R
FORT BELVOIR   PTCLDY    72  65  77 SE1       30.14R
QUANTICO       CLEAR     75  67  76 NW7       30.14R
FREDERICKSBRG* CLEAR     74  65  73 CALM      30.14R
STAFFORD*      CLEAR     69  65  88 CALM      30.18R
WARRENTON      CLEAR     71  62  71 CALM      30.15R
CULPEPER*      CLEAR     72  68  88 CALM      30.16R
MANASSAS*      CLEAR     77  59  53 N5        30.14
LEESBURG*      CLEAR     77  63  61 W10       30.16R
WINCHESTER     CLEAR     72  55  56 CALM      30.17R
FRONT ROYAL*   FAIR      72  59  64 CALM      30.16R
LURAY*         FAIR      70  63  78 CALM      30.17R
$$

VAZ048-049-060>072-079>083-230100-
CENTRAL AND SOUTH CENTRAL VIRGINIA

CITY           SKY/WX    TMP DP  RH WIND       PRES   REMARKS
RICHMOND       PTCLDY    75  57  53 N6        30.14R
CHESTERFIELD*  FAIR      77  54  44 N5        30.16R
PETERSBURG*    CLEAR     73  64  75 CALM      30.15R
HANOVER        CLEAR     71  62  73 CALM      30.16R
TAPPAHANNOCK*  CLEAR     71  65  81 CALM      30.14R
QUINTON*       FAIR      75  64  69 CALM      30.13R
CHARLOTTSVILLE CLEAR     76  56  49 CALM      30.16R
GORDONSVILLE*  FAIR      70  63  78 CALM      30.15R
ORANGE*          N/A     70  66  88 CALM      30.17R
LOUISA*        CLEAR     72  68  88 CALM      30.15R
BUMPASS*       FAIR      70  65  85 CALM      30.15R
FARMVILLE*     CLEAR     74  62  66 CALM      30.14R
CREWE*         FAIR      71  63  76 CALM      30.16R
FORT PICKETT*  NOT AVBL
CHASE CITY*    FAIR      73  63  69 CALM      30.16R
CLARKSVILLE*   FAIR      77  61  57 CALM      30.15R
SOUTH HILL*    CLEAR     71  65  80 CALM      30.20R
LAWRENCEVILLE* FAIR      75  63  66 CALM      30.15R
EMPORIA*       PTCLDY    70  63  78 CALM      30.15R
$$

VAZ088>098-230100-
SOUTHEAST VIRGINIA

CITY           SKY/WX    TMP DP  RH WIND       PRES   REMARKS
NORFOLK        PTCLDY    78  65  63 E3        30.13R
VIRGINIA BEACH PTCLDY    80  61  52 NW3       30.12R
NORFOLK NAVAL  PTCLDY    75  66  73 E5        30.14R
WEST POINT*    CLEAR     74  65  72 CALM      30.15R
SALUDA*        FAIR      78  62  59 N6        30.13R
NEWPORT NEWS   MOCLDY    76  63  64 N5        30.13R
LANGLEY AFB    PTCLDY    78  65  62 CALM      30.13R
FORT EUSTIS    CLEAR     82  62  51 VRB2      30.11R
WILLIAMSBURG*  CLEAR     79  63  57 CALM      30.14R
HR EXEC AP*    FAIR      70  61  73 NE3       30.15R
FRANKLIN*      CLEAR     74  63  67 CALM      30.14R
US460-WAKEFLD  CLEAR     73  63  70 CALM      30.14R
$$

VAZ020-022-025-037-045-230100-
WEST CENTRAL AND SOUTHWEST VIRGINIA

CITY           SKY/WX    TMP DP  RH WIND       PRES   REMARKS
STAUNTON*      MOCLDY    72  58  61 CALM      30.20R
WAYNESBORO*    FAIR      69  58  69 CALM      30.20R
HOT SPRINGS VA CLEAR     64  52  64 N5        30.29R
LYNCHBURG      CLEAR     70  61  73 CALM      30.18R
DANVILLE       MOCLDY    71  67  87 MISG      30.16R
SOUTH BOSTON*  NOT AVBL
MARTINSVILLE   CLOUDY    69  66  89 CALM      30.20R
ROANOKE        PTCLDY    72  56  57 NW6       30.20R
BLACKSBURG     CLOUDY    69  56  63 NW3       30.27R
DUBLIN*        PTCLDY    72  56  58 CALM      30.25R
MARION*        CLOUDY    68  60  75 CALM      30.28S
HILLSVILLE*    CLEAR     68  58  68 N3        30.25R
RICHLANDS*     FAIR      67  57  71 N3        30.27R
WISE*          MOCLDY    66  50  55 CALM      30.28S
ABINGDON*      PTCLDY    71  61  70 CALM      30.24R
$$

MDZ021>025-VAZ099-100-230100-
SOUTHERN MARYLAND AND THE DELMARVA PENINSULA

CITY           SKY/WX    TMP DP  RH WIND       PRES   REMARKS
PATUXENT RIVER PTCLDY    77  59  53 N6        30.12R
BAY BRIDGE APT CLEAR     77  57  50 N7        30.13R
LEONARDTOWN    CLEAR     70  61  73 CALM      30.15R
DOVER          CLEAR     74  62  65 N6        30.12R
GEORGETOWN     CLEAR     76  59  55 NW3       30.13R
EASTON         PTCLDY    75  66  73 CALM      30.16R
CAMBRIDGE      CLEAR     70  63  78 CALM      30.13R
SALISBURY      CLEAR     73  61  65 N3        30.13R
OCEAN CITY     CLEAR     72  63  73 NW5       30.12R
WALLOPS ISLAND CLEAR     78  61  55 MISG      30.13R
ACCOMACK*      MOCLDY    72  64  76 CALM      30.13R
$$

NCZ012>017-030>032-230100-
NORTH CENTRAL AND EASTERN NORTH CAROLINA

CITY           SKY/WX    TMP DP  RH WIND       PRES   REMARKS
ROANOKE RAPIDS FAIR      72  66  83 CALM      30.13R
RALEIGH        PTCLDY    80  59  48 N5        30.15R
ELIZABETH CITY CLEAR     75  64  68 E6        30.13R
AHOSKIE*       CLEAR     73  66  78 CALM      30.14R
EDENTON*       PTCLDY    76  64  65 E3        30.14R
CURRITUCK*       N/A     76  66  71 CALM      30.14R
KILL DEVIL HLS CLEAR     75  67  76 CALM      30.12S
MANTEO         CLEAR     75  67  76 CALM      30.14R
CAPE HATTERAS  CLEAR     77  65  66 E5        30.13R
TARBORO*       FAIR      74  71  89 CALM      30.14R
GOLDSBORO      PTCLDY    82  64  54 CALM      30.11R
WASHINGTON     CLEAR     74  67  77 CALM      30.13R
GREENVILLE     CLEAR     77  64  65 CALM      30.14R
NEW BERN       PTCLDY    80  66  62 CALM      30.13R
WILMINGTON     PTCLDY    81  70  69 E3        30.11R
$$

VAZ048-230100-
ELSEWHERE

CITY           SKY/WX    TMP DP  RH WIND       PRES   REMARKS
HARRISBURG PA  CLEAR     75  55  49 CALM      30.14R
BALTIMORE      PTCLDY    77  56  48 VRB3      30.13R
ANNAPOLIS      CLEAR     79  61  53 N5        30.12R
ANDREWS AFB    CLEAR     73  58  59 N7        30.13R
PHILADELPHIA   PTCLDY    77  50  38 N12       30.13R
HENDERSON NC   CLEAR     70  62  75 CALM      30.16R
GREENSBORO     PTCLDY    79  57  46 N3        30.16S
ROCKY MOUNT    CLEAR     75  65  70 CALM      30.13R
$$

VAZ100-230100-
MARINE

STATION/POSITION TIME  TEMP    WIND        PRES    WAVE   SWELL
                       AIR SEA DIR/SP/G            HT/PER HT/PER
                 (UTC) (F)     (DEG/KT/KT) (MB)    (FT/S) (FT/S)
CAPE MAY NJ      2300   80 79              1018.6R
LEWES DE         2300   79 77              1019.0R
OCEAN-CITY-INLET 2300   80 77              1019.6R
WACHAPREAGUE VA  2300   82 85              1019.6R
THOMAS POINT MD  0000   80 83  340/  8/  9 1021.5R
GOOSES REEF MD   2300   83 83  350/ 12/ 14 1019.9R   1
COVE POINT MD    2300   80                 1020.0R
SOLOMONS ISLAND  2300   81 85                N/A
BISHOPS HEAD MD  2300   80 83              1019.8R
PINEY POINT MD   2300          350/ 11/ 13   N/A
POTOMAC MD       2300   82 84  350/  6/  6 1018.4R   1
CAMBRIDGE MD     2300   80 85              1018.6R
LEWISETTA VA     2300   81 83              1019.2R
RAPPAHANNOCK LGT 2300                      1020.1R
STINGRAY PT      2300   83 85  260/ 10/ 12 1019.9R   1/ 2
YORK RVR RNG VA  2300   82                 1019.1R
YORKTOWN VA      2300   82 84              1019.2R
JAMESTOWN VA     2300   83 87  340/  6/  8   N/A     0
DOMINION TERM VA 2300   82                 1019.8R
KIPTOPEKE VA     2300      78                N/A
CHES BAY BRIDGE  2300   80 81              1019.6R
CAPE HENRY VA    2300   80                   N/A
WILLOUBY STN VA  2300   80                   N/A
CAPE HENRY BUOY  2312      79                N/A     3/ 6
1ST LANDING BUOY 2300   81 78   20/  8/ 10 1019.3R   1/ 3
CAPE CHARLES BUO 2326      77                N/A     2/13
OFFSHORE WE BUOY 2321      81                N/A     3/ 6
64NM E OF VA BCH 2350   80 82  330/ 10/ 12 1019.8R   3/ 6   2/ 6
DUCK PIER NC     2300   79 77              1019.2R
44100 DUCK FRF   2305      81                N/A     3/ 6
44056 DUCK FRF   2311      78                N/A     3/ 5
OREGON INLET NC  2300   78 78              1019.8R
HATTERAS NC      2300   81 82              1019.4R
DIAMOND SHLS NC  2350   81 85   50/ 10/ 14 1019.9R   3/ 7   3/ 7
CAPE LOOKOUT NC  0000   81      90/  7/  8 1019.6R
$$




USA.gov is the U.S. government's official web portal to all federal, state and local government web resources and services.